DW3701 Weather Reports


Display with metric or nautical units.
time (UTC)temp
F
wind
direction
speed
MPH
gust
MPH
rain 1hr
in
rain 24hr
in
rain mn
in
humidity
%
barometer
mb
20210620150129 79 360 0.0 5.0 0.00 0.01 0.00 61 1008.6
20210620145600 78 22 0.0 8.0 0.00 0.01 0.00 61 1008.7
20210620145057 79 72 2.0 8.0 0.00 0.01 0.00 59 1008.7
20210620144635 80 307 1.0 6.0 0.00 0.01 0.00 60 1008.6
20210620144056 79 360 0.0 3.0 0.00 0.01 0.00 61 1008.6
20210620143549 79 332 0.0 3.0 0.00 0.01 0.00 60 1008.7
20210620133111 74 238 0.0 3.0 0.00 0.01 0.00 70 1009.2
20210620132551 73 230 0.0 3.0 0.00 0.01 0.00 70 1009.3
20210620132101 73 315 0.0 4.0 0.00 0.01 0.00 71 1009.3
20210620131643 73 290 0.0 8.0 0.00 0.01 0.00 71 1009.3
20210620131041 72 283 2.0 8.0 0.00 0.01 0.00 71 1009.2
20210620130552 72 325 0.0 8.0 0.00 0.01 0.00 71 1009.3
20210620130053 72 272 0.0 3.0 0.00 0.01 0.00 72 1009.2
20210620125539 72 270 0.0 3.0 0.00 0.01 0.00 73 1009.3
20210620125036 71 269 0.0 0.0 0.00 0.01 0.00 74 1009.4
20210620124650 71 269 0.0 8.0 0.00 0.01 0.00 73 1009.4
20210620124034 71 269 0.0 8.0 0.00 0.01 0.00 75 1009.4
20210620123534 70 259 0.0 2.0 0.00 0.01 0.00 75 1009.5
20210620122530 70 260 0.0 8.0 0.00 0.01 0.00 76 1009.5
20210620122050 70 234 0.0 8.0 0.00 0.01 0.00 76 1009.4
20210620121552 70 213 0.0 7.0 0.00 0.01 0.00 76 1009.4
20210620121028 69 241 0.0 7.0 0.00 0.01 0.00 77 1009.3
20210620120525 69 225 0.0 1.0 0.00 0.01 0.00 77 1009.3
20210620120056 69 221 0.0 3.0 0.00 0.01 0.00 79 1009.3
20210620115531 68 221 0.0 4.0 0.00 0.01 0.00 80 1009.3
20210620115019 67 216 0.0 4.0 0.00 0.01 0.00 81 1009.4
20210620114531 67 205 0.0 5.0 0.00 0.01 0.00 83 1009.4
20210620114017 67 204 0.0 6.0 0.00 0.01 0.00 83 1009.3
20210620113515 67 269 0.0 6.0 0.00 0.01 0.00 84 1009.3
20210620113019 66 225 0.0 6.0 0.00 0.01 0.00 84 1009.4
20210620112518 66 221 2.0 7.0 0.00 0.01 0.00 85 1009.3
20210620112011 66 263 0.0 7.0 0.00 0.01 0.00 85 1009.2
20210620111514 66 244 0.0 7.0 0.00 0.01 0.00 84 1009.2
20210620111008 66 238 2.0 7.0 0.00 0.01 0.00 84 1009.2
20210620110506 65 256 1.0 7.0 0.00 0.01 0.00 85 1009.1
20210620110019 65 227 0.0 6.0 0.00 0.01 0.00 85 1009.1
20210620105503 65 227 2.0 5.0 0.00 0.01 0.00 85 1009.0
20210620105002 65 257 0.0 4.0 0.00 0.01 0.00 86 1008.9
20210620104059 65 252 0.0 5.0 0.00 0.01 0.00 86 1008.9
20210620103558 65 229 0.0 5.0 0.00 0.01 0.00 86 1008.9
20210620103117 65 269 0.0 4.0 0.00 0.01 0.00 86 1008.9
20210620102555 65 273 1.0 6.0 0.00 0.01 0.00 86 1008.9
20210620102054 65 276 0.0 9.0 0.00 0.01 0.00 86 1008.8
20210620101713 65 267 3.0 9.0 0.00 0.01 0.00 86 1008.7
20210620101050 64 271 0.0 4.0 0.00 0.01 0.00 86 1008.8
20210620100555 64 277 1.0 4.0 0.00 0.01 0.00 86 1008.8
20210620100118 64 279 0.0 0.0 0.00 0.01 0.00 86 1008.7
20210620095554 64 279 0.0 0.0 0.00 0.01 0.00 86 1008.5
20210620095046 64 279 0.0 0.0 0.00 0.01 0.00 86 1008.4
20210620094607 64 279 0.0 0.0 0.00 0.01 0.00 86 1008.3
20210620094043 65 279 0.0 3.0 0.00 0.01 0.00 86 1008.3
20210620093542 65 279 0.0 3.0 0.00 0.01 0.00 85 1008.3
20210620093057 65 279 0.0 4.0 0.00 0.01 0.00 85 1008.2
20210620092542 65 279 0.0 4.0 0.00 0.01 0.00 85 1008.1
20210620092041 65 286 0.0 2.0 0.00 0.01 0.00 85 1008.2
20210620091621 65 286 0.0 2.0 0.00 0.01 0.00 85 1008.2
20210620091112 65 290 0.0 2.0 0.00 0.01 0.00 85 1008.2
20210620090543 65 292 0.0 0.0 0.00 0.01 0.00 85 1008.2
20210620090150 65 293 0.0 0.0 0.00 0.01 0.00 84 1008.3
20210620085540 64 331 0.0 1.0 0.00 0.01 0.00 84 1008.2
20210620085039 65 331 0.0 1.0 0.00 0.01 0.00 84 1008.1
20210620084628 65 323 0.0 1.0 0.00 0.01 0.00 84 1008.2
20210620084037 65 36 0.0 1.0 0.00 0.01 0.00 84 1008.1
20210620082550 65 289 0.0 1.0 0.00 0.01 0.00 84 1008.1
20210620082039 65 336 0.0 1.0 0.00 0.01 0.00 84 1008.2
20210620081704 65 311 0.0 1.0 0.00 0.01 0.00 84 1008.0
20210620081042 65 28 0.0 2.0 0.00 0.01 0.00 84 1007.9
20210620080535 65 289 0.0 2.0 0.00 0.01 0.00 84 1008.0
20210620080128 65 196 0.0 0.0 0.00 0.01 0.00 84 1007.9
20210620075535 65 198 0.0 1.0 0.00 0.01 0.00 84 1007.7
20210620075047 65 198 0.0 1.0 0.00 0.01 0.00 84 1007.8
20210620074546 65 188 0.0 1.0 0.00 0.01 0.00 84 1007.5
20210620074034 65 35 0.0 1.0 0.00 0.01 0.00 84 1007.5
20210620073536 65 96 0.0 1.0 0.00 0.01 0.00 84 1007.3
20210620073152 65 40 0.0 2.0 0.00 0.01 0.00 84 1007.3
20210620072533 65 340 0.0 1.0 0.00 0.01 0.00 84 1007.4
20210620072048 65 320 0.0 1.0 0.00 0.01 0.00 84 1007.5
20210620071557 65 173 0.0 1.0 0.00 0.01 0.00 84 1007.5
20210620071034 65 161 0.0 1.0 0.00 0.01 0.00 84 1007.2
20210620070541 65 227 0.0 1.0 0.00 0.01 0.00 84 1007.2
20210620070121 65 194 0.0 1.0 0.00 0.01 0.00 84 1007.1
20210620065532 65 159 0.0 1.0 0.00 0.01 0.00 84 1007.2
20210620065032 65 220 0.0 1.0 0.00 0.01 0.00 84 1007.2
20210620064555 65 161 0.0 1.0 0.00 0.01 0.00 84 1007.1
20210620064030 65 75 0.0 1.0 0.00 0.01 0.00 84 1007.1
20210620063531 65 35 0.0 0.0 0.00 0.01 0.00 83 1007.3
20210620063053 65 141 0.0 0.0 0.00 0.01 0.00 83 1007.3
20210620062535 65 141 0.0 0.0 0.00 0.01 0.00 83 1007.3
20210620062036 65 40 0.0 1.0 0.00 0.01 0.00 82 1007.4
20210620061558 65 40 0.0 1.0 0.00 0.01 0.00 82 1007.4
20210620061036 65 38 0.0 1.0 0.00 0.01 0.00 82 1007.6
20210620060537 65 28 0.0 1.0 0.00 0.01 0.00 83 1007.4
20210620060042 65 23 0.0 1.0 0.00 0.01 0.00 82 1007.3
20210620055537 65 21 0.0 1.0 0.00 0.01 0.00 82 1007.4
20210620055033 65 22 0.0 1.0 0.00 0.01 0.00 82 1007.4
20210620054610 65 336 0.0 1.0 0.00 0.01 0.00 81 1007.5
20210620054025 65 275 0.0 1.0 0.00 0.01 0.00 81 1007.6
20210620053046 66 232 0.0 2.0 0.00 0.01 0.00 80 1007.7
20210620052527 66 101 0.0 2.0 0.00 0.01 0.00 80 1007.7
20210620052023 66 344 0.0 2.0 0.00 0.01 0.00 80 1007.7
20210620051601 66 348 0.0 2.0 0.00 0.01 0.00 79 1007.7
20210620051025 66 315 0.0 2.0 0.00 0.01 0.00 80 1007.8
20210620050524 66 180 0.0 3.0 0.00 0.01 0.00 79 1007.8
20210620050037 66 241 0.0 1.0 0.00 0.01 0.00 79 1007.9
20210620045521 66 249 0.0 4.0 0.00 0.01 0.00 79 1007.9
20210620045021 66 282 0.0 2.0 0.00 0.01 0.00 78 1007.8
20210620044528 66 292 0.0 2.0 0.00 0.01 0.00 78 1007.8
20210620044018 67 317 0.0 3.0 0.00 0.01 0.00 77 1007.8
20210620043523 67 328 0.0 3.0 0.00 0.01 0.00 77 1007.8
20210620043131 67 242 0.0 3.0 0.00 0.01 0.00 75 1007.8
20210620042016 68 42 1.0 6.0 0.00 0.01 0.00 72 1007.8
20210620041528 68 304 0.0 5.0 0.00 0.01 0.00 71 1007.7
20210620041014 68 283 1.0 5.0 0.00 0.01 0.00 71 1007.7
20210620040522 68 355 0.0 1.0 0.00 0.01 0.00 72 1007.7
20210620040015 68 302 0.0 1.0 0.00 0.01 0.00 73 1007.5
20210620035513 68 27 0.0 2.0 0.00 0.01 0.01 72 1007.5
20210620035010 68 251 0.0 3.0 0.00 0.01 0.01 73 1007.4
20210620034537 68 29 0.0 3.0 0.00 0.01 0.01 73 1007.5
20210620034009 68 40 0.0 1.0 0.00 0.01 0.01 73 1007.3
20210620033511 68 281 0.0 3.0 0.00 0.01 0.01 73 1007.4
20210620033021 68 286 1.0 3.0 0.00 0.01 0.01 72 1007.3
20210620032509 68 277 0.0 3.0 0.00 0.01 0.01 72 1007.3
20210620032012 68 39 0.0 1.0 0.00 0.01 0.01 73 1007.3
20210620031514 68 324 0.0 2.0 0.00 0.01 0.01 72 1007.3
20210620031011 69 331 0.0 2.0 0.01 0.01 0.01 71 1007.2
20210620030505 69 83 0.0 2.0 0.01 0.01 0.01 71 1007.2
20210620030005 69 74 0.0 2.0 0.01 0.01 0.01 71 1007.3
20210620025504 69 340 0.0 3.0 0.01 0.01 0.01 70 1007.2
20210620025004 69 269 0.0 3.0 0.01 0.01 0.01 70 1007.3
20210620024507 69 313 0.0 3.0 0.01 0.01 0.01 71 1007.2
20210620024005 69 342 0.0 3.0 0.01 0.01 0.01 73 1007.1
20210620022001 71 171 0.0 2.0 0.01 0.01 0.01 71 1006.8
20210620021505 73 111 0.0 1.0 0.01 0.01 0.01 70 1006.7
20210620021001 73 331 0.0 2.0 0.00 0.00 0.00 69 1006.8
20210620020600 74 312 0.0 2.0 0.00 0.00 0.00 64 1006.8
20210620020150 74 172 0.0 2.0 0.00 0.00 0.00 60 1006.9
20210620015600 74 187 0.0 2.0 0.00 0.00 0.00 59 1006.9
20210620015059 74 309 0.0 2.0 0.00 0.00 0.00 58 1006.8
20210620014726 74 5 0.0 1.0 0.00 0.00 0.00 58 1006.6
20210620014059 74 102 0.0 2.0 0.00 0.00 0.00 59 1006.4
20210620013622 74 142 0.0 2.0 0.00 0.00 0.00 59 1006.3
20210620013148 74 146 0.0 3.0 0.00 0.00 0.00 59 1006.2
20210620012558 75 86 0.0 3.0 0.00 0.00 0.00 59 1006.1
20210620012057 75 15 0.0 1.0 0.00 0.00 0.00 59 1006.1
20210620011714 75 134 0.0 1.0 0.00 0.00 0.00 57 1006.1
20210620011109 75 334 0.0 1.0 0.00 0.00 0.00 57 1005.9
20210620010557 75 327 0.0 1.0 0.00 0.00 0.00 56 1005.6
20210620010301 75 217 0.0 2.0 0.00 0.00 0.00 56 1005.5
20210620005557 76 42 0.0 2.0 0.00 0.00 0.00 56 1005.5
20210620005057 76 190 0.0 1.0 0.00 0.00 0.00 56 1005.6
20210620004713 76 173 0.0 1.0 0.00 0.00 0.00 56 1005.5
20210620004056 77 130 0.0 1.0 0.00 0.00 0.00 55 1005.4
20210620003556 77 128 0.0 1.0 0.00 0.00 0.00 54 1005.4
20210620003142 78 140 0.0 1.0 0.00 0.00 0.00 53 1005.3
20210620002556 78 53 0.0 2.0 0.00 0.00 0.00 52 1005.3
20210620002056 79 59 0.0 2.0 0.00 0.00 0.00 51 1005.4
20210620001636 79 30 0.0 3.0 0.00 0.00 0.00 50 1005.3
20210620001056 80 26 0.0 3.0 0.00 0.00 0.00 49 1005.2
20210620000601 80 67 0.0 2.0 0.00 0.00 0.00 48 1005.3
20210620000146 81 11 0.0 2.0 0.00 0.00 0.00 47 1005.3
20210619235556 81 76 0.0 1.0 0.00 0.00 0.00 47 1005.1
20210619235055 81 259 0.0 1.0 0.00 0.00 0.00 47 1005.1
20210619234724 81 26 0.0 1.0 0.00 0.00 0.00 46 1005.0
20210619234055 82 71 0.0 1.0 0.00 0.00 0.00 46 1005.0
20210619233554 82 101 0.0 1.0 0.00 0.00 0.00 45 1005.0
20210619233213 82 82 0.0 0.0 0.00 0.00 0.00 45 1005.0
20210619232557 82 123 0.0 0.0 0.00 0.00 0.00 44 1005.0
20210619232054 83 230 0.0 0.0 0.00 0.00 0.00 44 1005.0
20210619231636 83 16 0.0 1.0 0.00 0.00 0.00 43 1005.0
20210619231110 83 318 0.0 1.0 0.00 0.00 0.00 42 1005.0
20210619230553 83 275 0.0 0.0 0.00 0.00 0.00 42 1005.0
20210619230236 83 286 0.0 0.0 0.00 0.00 0.00 41 1005.0
20210619225559 83 279 0.0 1.0 0.00 0.00 0.00 41 1004.8
20210619225055 83 277 0.0 1.0 0.00 0.00 0.00 41 1004.9
20210619224636 84 290 0.0 1.0 0.00 0.00 0.00 41 1004.7
20210619224052 84 283 0.0 2.0 0.00 0.00 0.00 40 1004.6
20210619223552 84 288 0.0 2.0 0.00 0.00 0.00 40 1004.6
20210619223054 84 309 0.0 2.0 0.00 0.00 0.00 39 1004.6
20210619222552 85 347 0.0 2.0 0.00 0.00 0.00 40 1004.5
20210619222057 85 290 0.0 2.0 0.00 0.00 0.00 39 1004.6
20210619221729 85 260 0.0 2.0 0.00 0.00 0.00 39 1004.6
20210619221052 86 347 0.0 2.0 0.00 0.00 0.00 39 1004.6
20210619220611 86 225 0.0 2.0 0.00 0.00 0.00 39 1004.5
20210619220126 86 199 0.0 2.0 0.00 0.00 0.00 38 1004.6
20210619215556 86 286 0.0 3.0 0.00 0.00 0.00 38 1004.6
20210619215111 86 323 1.0 3.0 0.00 0.00 0.00 37 1004.5
20210619214611 87 96 0.0 3.0 0.00 0.00 0.00 37 1004.5
20210619214104 87 291 0.0 3.0 0.00 0.00 0.00 37 1004.5
20210619213550 87 280 0.0 3.0 0.00 0.00 0.00 37 1004.5
20210619213241 88 279 0.0 3.0 0.00 0.00 0.00 36 1004.5
20210619212554 89 288 0.0 2.0 0.00 0.00 0.00 36 1004.5
20210619212049 89 265 0.0 1.0 0.00 0.00 0.00 37 1004.5
20210619211632 88 95 0.0 3.0 0.00 0.00 0.00 38 1004.6
20210619211104 88 301 0.0 3.0 0.00 0.00 0.00 37 1004.6
20210619210554 88 34 0.0 2.0 0.00 0.00 0.00 37 1004.5
20210619210224 87 260 0.0 2.0 0.00 0.00 0.00 38 1004.6
20210619205548 87 218 0.0 2.0 0.00 0.00 0.00 37 1004.6
20210619205048 87 286 0.0 3.0 0.00 0.00 0.00 37 1004.6
20210619204615 88 338 0.0 4.0 0.00 0.00 0.00 36 1004.6
20210619204046 89 336 0.0 4.0 0.00 0.00 0.00 35 1004.8
20210619203546 89 144 0.0 1.0 0.00 0.00 0.00 37 1004.7
20210619203152 88 138 0.0 3.0 0.00 0.00 0.00 37 1004.7
20210619202545 88 275 0.0 4.0 0.00 0.00 0.00 37 1004.8
20210619202044 88 260 1.0 4.0 0.00 0.00 0.00 37 1004.9
20210619201603 87 210 0.0 4.0 0.00 0.00 0.00 39 1005.0
20210619201052 86 96 0.0 4.0 0.00 0.00 0.00 40 1005.0
20210619200545 85 38 0.0 4.0 0.00 0.00 0.00 42 1005.2
20210619200122 85 329 0.0 4.0 0.00 0.00 0.00 42 1005.3
20210619195543 85 222 0.0 2.0 0.00 0.00 0.00 44 1005.4
20210619195042 85 96 0.0 1.0 0.00 0.00 0.00 43 1005.4
20210619194610 84 286 0.0 3.0 0.00 0.00 0.00 43 1005.4
20210619194044 84 283 0.0 3.0 0.00 0.00 0.00 42 1005.5
20210619193541 84 272 0.0 3.0 0.00 0.00 0.00 41 1005.5
20210619193125 84 272 0.0 3.0 0.00 0.00 0.00 42 1005.5
20210619192542 84 301 0.0 5.0 0.00 0.00 0.00 41 1005.5
20210619192047 85 125 1.0 5.0 0.00 0.00 0.00 41 1005.5
20210619191617 85 250 1.0 4.0 0.00 0.00 0.00 41 1005.6
20210619191042 85 76 1.0 4.0 0.00 0.00 0.00 42 1005.6
20210619190606 85 254 0.0 4.0 0.00 0.00 0.00 41 1005.6
20210619190208 85 232 1.0 3.0 0.00 0.00 0.00 42 1005.7
20210619185541 85 309 1.0 5.0 0.00 0.00 0.00 40 1005.8
20210619185040 86 296 1.0 4.0 0.00 0.00 0.00 42 1005.8
20210619184615 86 72 0.0 4.0 0.00 0.00 0.00 43 1005.9
20210619184051 86 17 0.0 3.0 0.00 0.00 0.00 42 1005.9
20210619183543 86 52 0.0 4.0 0.00 0.00 0.00 42 1005.9
20210619183108 86 283 1.0 6.0 0.00 0.00 0.00 40 1005.8
20210619182546 86 280 0.0 3.0 0.00 0.00 0.00 42 1005.9
20210619182102 86 286 1.0 3.0 0.00 0.00 0.00 42 1005.9
20210619181613 86 275 0.0 2.0 0.00 0.00 0.00 43 1005.9
20210619181124 86 55 0.0 5.0 0.00 0.00 0.00 43 1006.0
20210619180549 86 119 1.0 5.0 0.00 0.00 0.00 43 1006.0
20210619180120 86 265 0.0 3.0 0.00 0.00 0.00 42 1006.0
20210619175555 86 217 0.0 3.0 0.00 0.00 0.00 41 1005.9
20210619175038 86 281 1.0 3.0 0.00 0.00 0.00 41 1006.0
20210619174657 86 233 1.0 3.0 0.00 0.00 0.00 44 1006.0
20210619174039 87 281 1.0 3.0 0.00 0.00 0.00 44 1006.0
20210619173542 87 159 0.0 3.0 0.00 0.00 0.00 45 1006.0
20210619173213 87 132 0.0 2.0 0.00 0.00 0.00 45 1006.0
20210619172540 87 299 0.0 3.0 0.00 0.00 0.00 46 1005.9
20210619172038 87 205 1.0 3.0 0.00 0.00 0.00 44 1005.9
20210619171615 88 265 0.0 3.0 0.00 0.00 0.00 43 1005.9
20210619171041 88 135 0.0 4.0 0.00 0.00 0.00 44 1005.9
20210619170539 88 54 1.0 4.0 0.00 0.00 0.00 43 1005.8
20210619170041 88 287 0.0 4.0 0.00 0.00 0.00 44 1005.9
20210619165535 89 277 0.0 4.0 0.00 0.00 0.00 44 1005.9
20210619165034 88 132 0.0 6.0 0.00 0.00 0.00 45 1005.9
20210619164612 87 133 1.0 6.0 0.00 0.00 0.00 44 1006.1
20210619164037 87 286 0.0 2.0 0.00 0.00 0.00 45 1005.9
20210619163540 87 291 0.0 2.0 0.00 0.00 0.00 49 1006.0
20210619163102 87 17 0.0 2.0 0.00 0.00 0.00 47 1006.0
20210619162543 87 315 0.0 2.0 0.00 0.00 0.00 48 1006.0
20210619162036 87 34 0.0 4.0 0.00 0.00 0.00 49 1006.0
20210619161534 87 132 1.0 4.0 0.00 0.00 0.00 48 1006.0
20210619161032 87 254 0.0 3.0 0.00 0.00 0.00 49 1006.1
20210619160535 88 65 1.0 3.0 0.00 0.00 0.00 48 1006.0
20210619160108 87 46 0.0 2.0 0.00 0.00 0.00 49 1006.0
20210619155531 87 302 0.0 3.0 0.00 0.00 0.00 50 1006.1
20210619155031 87 291 1.0 3.0 0.00 0.00 0.00 50 1006.1
20210619154534 87 16 0.0 3.0 0.00 0.00 0.00 51 1006.0
20210619154033 86 115 0.0 2.0 0.00 0.00 0.00 53 1006.1
20210619153526 85 302 0.0 4.0 0.00 0.00 0.00 56 1006.1
20210619153055 84 90 1.0 4.0 0.00 0.00 0.00 56 1006.2
20210619152525 84 281 1.0 4.0 0.00 0.00 0.00 55 1006.0
20210619152025 84 298 1.0 3.0 0.00 0.00 0.00 56 1006.0
20210619151530 83 64 0.0 3.0 0.00 0.00 0.00 58 1006.1
20210619151034 82 245 0.0 4.0 0.00 0.00 0.00 60 1006.1